Wind_Speed
12 12 11 11 11 10 9 8 8 8 7 7 8 8 8 7 8 8 9 9 9 9 9 9 10 10 10 10 11 10 10 10 10 10 10 10 10 11 11 10 10 9 9
12 12 12 11 11 11 10 10 10 9 8 8 8 9 8 8 8 9 9 10 9 9 9 9 9 9 10 10 11 11 11 11 11 11 10 10 11 11 11 11 10 10 9
13 13 12 12 11 10 10 10 10 10 10 10 9 9 9 9 9 9 10 10 9 9 9 10 10 10 10 10 10 11 11 11 11 11 11 10 11 11 11 11 12 11 10
13 13 13 12 10 10 10 10 10 11 11 11 10 10 9 9 9 10 10 10 10 10 10 10 11 10 10 10 10 11 11 12 11 11 11 11 11 11 11 11 11 11 11
13 13 13 13 12 11 11 11 11 12 12 12 12 11 11 11 11 11 11 12 11 11 11 11 11 11 11 11 11 11 11 12 12 12 12 12 11 11 11 12 11 11 11
14 14 13 13 13 12 11 12 13 12 12 13 12 13 13 12 12 12 12 12 12 12 12 12 12 11 11 12 11 11 12 12 12 13 13 13 12 12 12 12 12 12 11
14 13 13 14 16 15 14 14 13 12 12 12 12 13 13 13 13 13 13 13 13 14 13 12 12 12 12 12 12 12 12 12 12 13 13 13 13 13 13 12 12 12 12
14 15 15 15 15 16 16 15 14 13 13 13 13 14 14 14 14 14 14 15 15 14 14 14 13 13 13 13 13 13 13 13 13 13 13 13 14 14 14 13 13 13 13
16 16 17 16 15 15 16 16 15 14 14 14 14 14 14 15 15 15 15 15 15 15 15 15 14 14 14 14 14 14 14 14 14 14 13 13 14 14 14 14 15 15 14
17 18 18 18 17 17 17 15 16 15 14 14 14 14 14 15 16 16 16 16 16 17 16 16 16 16 16 16 16 16 16 15 15 14 14 14 14 14 15 15 15 15 14
18 18 19 19 19 18 17 17 16 16 15 15 15 15 16 15 16 17 17 17 17 17 18 18 17 17 17 17 16 16 16 17 16 16 15 15 15 15 14 15 15 15 15
19 19 20 21 20 19 18 17 17 16 17 17 16 16 17 17 17 17 18 18 18 18 18 18 18 18 18 18 18 17 17 17 17 17 16 16 16 16 16 16 16 16 16
21 21 22 21 20 20 20 18 18 18 18 19 18 18 18 19 18 18 17 18 19 19 19 19 18 19 19 18 18 18 18 18 18 17 17 16 16 16 17 17 17 17 17
21 21 21 21 21 21 21 20 20 20 20 21 21 20 20 20 20 19 19 19 20 20 20 20 20 20 20 19 18 19 19 18 18 18 18 17 16 16 16 17 17 17 17
23 23 24 23 22 22 22 22 23 23 23 23 23 23 22 22 22 21 21 21 21 21 21 21 20 20 21 21 20 20 19 19 19 19 19 19 18 17 17 17 18 18 18
25 25 24 23 23 23 23 24 25 25 25 24 25 25 24 24 24 23 23 22 22 22 22 21 21 21 21 21 21 20 19 19 19 19 20 20 20 19 19 19 19 19 19
25 25 25 24 24 25 25 26 26 26 26 26 26 26 26 26 25 25 25 24 23 23 24 24 23 22 22 22 22 21 20 20 20 20 21 21 21 21 21 20 20 20 20
27 27 26 26 26 26 26 27 27 27 27 26 25 26 27 26 26 26 25 25 25 24 24 24 24 24 24 23 23 22 22 22 21 21 22 22 22 22 22 21 21 21 21
29 29 28 28 28 27 27 27 27 27 26 26 26 27 27 26 26 26 26 25 25 25 25 25 25 25 25 25 24 24 23 23 22 22 22 23 22 23 23 22 22 21 22
30 29 29 29 29 28 27 27 27 27 27 27 26 26 26 26 26 26 25 25 26 26 26 26 26 26 26 26 26 25 25 24 23 23 23 23 24 24 24 23 23 23 23
30 30 30 29 29 29 28 28 28 28 28 27 27 26 27 27 27 27 26 26 26 26 27 27 27 27 26 26 26 26 26 26 25 25 25 25 25 25 25 24 24 23 23
31 30 29 29 29 30 29 29 28 28 28 27 27 27 27 28 28 28 27 27 26 27 27 28 28 28 28 27 27 27 27 28 28 26 26 26 26 26 26 25 25 25 25
31 31 30 30 30 30 30 30 29 29 28 28 27 27 28 28 28 28 28 27 27 27 27 27 28 28 28 28 28 28 29 29 29 28 27 27 27 27 27 27 27 26 26
32 32 31 31 30 30 30 29 30 30 30 29 28 28 28 27 27 28 28 27 27 28 28 27 27 28 28 28 29 29 29 29 28 28 28 28 28 28 28 28 28 27 27
30 31 31 31 30 30 30 29 29 30 30 29 29 29 29 28 29 28 28 28 28 28 28 29 29 29 29 29 29 29 30 30 29 30 29 29 29 29 29 28 28 28 28
31 31 30 30 30 29 29 30 30 30 30 30 29 29 29 29 29 29 28 28 28 28 28 27 27 27 27 28 29 29 29 29 30 30 30 30 30 30 30 30 29 30 29
Wind_Direction
272 278 274 276 279 282 283 279 281 283 270 266 268 269 274 275 279 281 283 284 285 287 289 287 286 290 289 284 279 276 271 269 266 264 262 260 261 263 263 263 265 263 261
274 275 273 275 278 282 282 282 285 287 271 264 268 271 270 274 279 280 284 285 287 289 288 285 284 287 289 283 275 272 269 266 263 261 260 261 260 260 260 261 263 265 264
274 271 278 283 277 279 280 287 282 282 271 263 268 274 272 276 278 277 281 282 284 285 284 283 286 288 287 282 275 269 267 266 263 258 258 258 260 261 258 260 263 265 265
275 279 280 280 277 279 282 282 279 280 275 264 263 267 271 275 276 275 280 283 283 283 285 284 287 288 287 282 278 270 268 266 264 259 259 259 260 259 258 259 262 264 265
274 278 283 278 269 270 281 280 286 279 273 266 264 265 267 270 272 275 278 279 280 281 285 288 286 286 287 284 278 272 270 266 263 259 260 261 262 261 259 256 258 261 263
273 277 281 278 275 278 280 283 284 282 275 272 270 268 268 269 271 273 274 275 277 279 281 283 284 283 286 283 276 272 270 268 264 262 261 260 260 259 257 257 256 256 259
270 278 281 281 284 285 288 286 284 281 278 275 273 269 268 269 270 271 270 271 274 277 279 281 281 281 283 280 274 272 269 268 267 263 261 262 259 257 256 256 255 252 254
272 277 280 285 286 287 287 283 281 281 279 275 271 268 266 266 269 271 271 269 270 274 278 281 279 278 278 279 275 272 269 268 266 263 262 261 259 258 258 257 254 253 252
273 279 280 284 286 286 285 280 280 282 281 277 273 271 270 268 271 272 271 271 270 272 275 278 279 280 279 277 276 272 269 267 266 263 262 260 259 259 258 257 255 253 252
273 276 277 280 285 284 282 278 280 279 278 277 275 271 269 269 269 271 272 274 275 274 274 275 276 279 277 275 275 272 269 268 266 263 260 258 258 259 259 256 255 254 252
271 274 276 278 282 283 281 280 279 276 276 279 276 272 271 272 272 272 272 274 275 273 273 276 275 275 276 275 273 272 270 268 268 264 260 258 257 258 258 256 256 256 253
274 277 278 278 278 279 280 282 278 275 276 279 278 273 273 276 277 277 275 274 274 274 276 275 274 273 272 271 271 271 271 269 268 265 263 259 256 258 257 257 257 254 251
273 275 277 275 274 274 277 279 278 275 274 275 275 276 276 277 277 277 276 275 275 276 277 277 276 274 272 272 271 271 272 271 266 263 263 260 256 255 254 254 255 254 251
269 269 273 275 273 274 278 277 275 275 273 273 274 275 276 276 275 276 277 276 277 278 278 276 274 274 272 272 271 270 271 270 266 262 258 257 257 255 254 253 253 252 251
268 270 272 273 273 276 278 276 274 273 272 272 273 274 275 275 274 274 275 276 276 277 277 277 274 272 271 270 270 270 270 267 264 259 254 252 252 254 254 254 255 253 251
272 271 272 273 275 276 276 273 272 272 272 274 274 274 273 272 272 272 273 274 274 275 274 274 273 271 270 269 269 268 266 264 263 258 253 251 252 253 253 254 255 254 251
271 274 274 276 276 275 273 273 273 274 273 272 273 273 271 269 270 271 271 271 272 271 271 272 271 271 270 268 267 266 263 262 261 257 254 252 252 252 253 256 257 255 253
267 272 273 275 276 276 275 273 275 276 275 273 273 271 270 270 269 269 269 270 269 270 270 271 271 270 269 267 264 262 261 259 258 258 256 254 252 250 252 254 255 256 254
268 269 271 272 273 275 276 279 279 277 277 276 272 270 270 270 268 268 267 268 268 269 270 270 270 269 269 266 263 261 260 260 258 257 256 255 253 252 252 253 253 254 255
270 270 271 271 270 273 276 277 278 278 277 274 271 269 268 267 267 267 267 267 267 268 269 268 268 268 268 266 263 261 260 258 257 256 257 256 254 253 252 252 252 253 254
270 271 270 270 269 273 275 276 276 276 275 273 271 269 268 267 266 266 267 267 267 268 268 267 268 268 267 266 263 262 260 259 259 259 257 257 255 253 251 251 253 255 255
270 272 270 271 273 275 276 276 275 275 273 271 270 268 269 268 267 266 266 266 267 268 268 267 268 268 267 265 264 263 262 260 259 259 257 255 253 251 251 252 253 255 256
270 270 271 272 273 274 275 275 274 273 272 270 268 267 266 268 267 267 266 266 267 268 269 268 267 267 267 264 262 261 260 259 257 258 257 254 253 252 252 253 254 255 256
269 270 271 272 272 272 272 273 272 272 272 270 269 268 268 269 269 267 266 267 267 267 267 268 267 266 266 264 262 260 258 255 255 254 254 252 252 253 254 255 256 256 257
267 269 271 272 272 271 271 271 270 270 270 269 269 270 268 267 267 267 268 268 266 266 267 267 267 266 265 264 262 260 257 255 254 253 253 253 252 253 255 256 257 257 257
268 270 271 271 272 274 274 274 274 271 270 268 268 267 266 266 266 266 267 268 268 267 268 268 268 267 266 264 261 260 258 255 253 252 252 252 253 254 254 255 256 256 256
Height
5873 5873 5873 5873 5873 5872 5872 5872 5872 5871 5871 5871 5871 5870 5870 5870 5870 5869 5868 5868 5868 5867 5866 5866 5865 5865 5864 5864 5864 5864 5864 5864 5864 5864 5864 5864 5864 5864 5864 5864 5863 5863 5863
5871 5870 5870 5870 5870 5870 5869 5869 5868 5868 5868 5868 5868 5868 5868 5867 5867 5866 5866 5865 5865 5865 5864 5863 5862 5862 5862 5861 5861 5861 5861 5861 5861 5862 5861 5861 5862 5861 5861 5861 5861 5861 5861
5868 5868 5867 5867 5867 5867 5867 5866 5866 5865 5865 5866 5866 5865 5865 5865 5864 5864 5864 5863 5862 5862 5861 5860 5860 5859 5859 5858 5858 5858 5858 5858 5858 5859 5859 5859 5859 5859 5859 5859 5858 5858 5858
5865 5865 5865 5864 5864 5864 5864 5864 5863 5863 5862 5862 5863 5863 5862 5862 5861 5861 5861 5860 5859 5859 5858 5857 5857 5856 5856 5855 5855 5854 5854 5855 5855 5855 5856 5856 5856 5856 5856 5856 5856 5856 5856
5862 5862 5861 5861 5860 5861 5861 5860 5860 5859 5859 5859 5859 5859 5859 5858 5858 5858 5857 5857 5856 5856 5855 5854 5854 5853 5852 5852 5852 5851 5851 5851 5851 5852 5852 5853 5853 5853 5853 5853 5854 5853 5853
5858 5858 5858 5857 5857 5857 5857 5856 5856 5856 5855 5855 5855 5855 5855 5855 5855 5854 5854 5854 5853 5852 5852 5851 5850 5850 5849 5849 5848 5848 5848 5848 5848 5848 5849 5849 5850 5850 5850 5850 5851 5851 5851
5855 5855 5855 5855 5854 5854 5854 5853 5853 5853 5852 5852 5852 5852 5851 5851 5851 5851 5850 5850 5850 5849 5848 5848 5847 5846 5846 5845 5845 5845 5845 5845 5845 5845 5845 5845 5846 5846 5847 5847 5847 5848 5848
5851 5850 5851 5851 5851 5851 5851 5850 5849 5849 5849 5848 5848 5848 5847 5847 5847 5847 5847 5846 5846 5845 5844 5843 5843 5842 5842 5842 5841 5841 5841 5841 5841 5841 5841 5841 5842 5842 5843 5843 5844 5844 5845
5846 5846 5846 5847 5847 5846 5846 5846 5845 5845 5844 5844 5844 5844 5843 5843 5843 5843 5842 5842 5841 5841 5840 5839 5838 5838 5838 5838 5838 5837 5837 5837 5837 5837 5837 5837 5838 5838 5838 5839 5840 5840 5841
5842 5842 5842 5842 5842 5842 5841 5841 5841 5840 5840 5840 5840 5839 5839 5839 5838 5838 5838 5837 5837 5836 5835 5835 5834 5834 5833 5833 5833 5833 5833 5833 5833 5833 5833 5833 5833 5834 5834 5834 5835 5836 5837
5838 5837 5837 5837 5837 5837 5836 5836 5836 5835 5836 5835 5835 5835 5834 5834 5833 5833 5832 5832 5831 5831 5830 5830 5829 5829 5829 5828 5828 5828 5828 5828 5828 5828 5828 5829 5829 5829 5830 5830 5831 5832 5832
5832 5832 5832 5832 5832 5832 5831 5831 5830 5830 5830 5830 5830 5830 5829 5829 5828 5828 5827 5827 5826 5825 5825 5824 5824 5823 5823 5823 5823 5823 5823 5823 5823 5824 5824 5824 5824 5825 5825 5826 5827 5827 5828
5826 5826 5826 5826 5826 5826 5825 5825 5824 5824 5825 5825 5825 5824 5824 5824 5823 5822 5822 5821 5820 5819 5819 5818 5818 5818 5818 5818 5818 5818 5818 5818 5818 5818 5819 5819 5820 5820 5821 5821 5822 5823 5824
5820 5820 5820 5820 5819 5820 5819 5819 5819 5819 5819 5819 5818 5818 5818 5817 5817 5816 5816 5815 5814 5814 5813 5812 5812 5812 5812 5812 5812 5812 5812 5812 5812 5812 5813 5814 5815 5816 5816 5817 5817 5818 5819
5813 5813 5813 5813 5813 5813 5813 5813 5813 5812 5812 5812 5812 5812 5811 5810 5810 5809 5809 5809 5808 5807 5807 5806 5806 5806 5806 5806 5806 5806 5806 5806 5806 5806 5807 5808 5809 5810 5811 5812 5813 5813 5814
5806 5806 5805 5806 5806 5806 5806 5805 5805 5805 5805 5805 5805 5804 5803 5803 5803 5802 5802 5802 5801 5801 5800 5800 5800 5800 5799 5799 5799 5799 5800 5800 5800 5801 5802 5803 5804 5805 5806 5806 5807 5808 5808
5799 5799 5799 5798 5798 5799 5798 5798 5798 5797 5797 5797 5796 5796 5795 5795 5795 5795 5795 5794 5794 5794 5793 5793 5793 5793 5793 5792 5792 5793 5793 5794 5794 5795 5796 5797 5798 5799 5800 5800 5801 5802 5803
5791 5792 5791 5791 5791 5791 5790 5789 5789 5789 5788 5788 5788 5788 5787 5787 5787 5787 5787 5787 5786 5786 5786 5786 5786 5786 5786 5785 5785 5786 5786 5787 5788 5789 5790 5791 5791 5792 5793 5794 5795 5796 5797
5784 5784 5784 5784 5783 5783 5782 5781 5781 5781 5781 5780 5780 5780 5779 5779 5779 5779 5779 5779 5778 5778 5778 5778 5778 5778 5778 5778 5778 5778 5779 5780 5781 5782 5783 5784 5785 5786 5787 5788 5789 5789 5790
5776 5775 5775 5775 5775 5775 5774 5774 5773 5773 5772 5772 5771 5771 5771 5771 5771 5771 5771 5770 5770 5770 5770 5770 5770 5770 5770 5770 5770 5770 5771 5772 5773 5774 5775 5776 5777 5778 5779 5781 5782 5783 5784
5766 5766 5766 5766 5766 5766 5765 5765 5765 5764 5764 5763 5763 5762 5762 5762 5762 5762 5762 5762 5762 5762 5761 5761 5761 5761 5761 5761 5762 5762 5763 5764 5765 5767 5767 5768 5770 5771 5772 5773 5775 5776 5776
5756 5756 5756 5757 5757 5757 5756 5756 5756 5755 5755 5755 5754 5754 5753 5753 5753 5753 5753 5753 5753 5753 5753 5753 5753 5753 5753 5753 5753 5754 5755 5756 5757 5758 5759 5760 5761 5763 5764 5766 5767 5768 5769
5748 5748 5748 5749 5748 5748 5748 5747 5747 5746 5746 5746 5745 5745 5745 5745 5745 5745 5744 5744 5744 5744 5744 5744 5744 5744 5744 5744 5745 5745 5746 5747 5748 5750 5751 5752 5753 5755 5756 5757 5759 5760 5761
5739 5738 5739 5739 5739 5738 5738 5738 5737 5737 5737 5736 5736 5736 5736 5736 5735 5735 5735 5735 5735 5735 5735 5735 5735 5735 5735 5735 5735 5736 5737 5738 5739 5741 5742 5744 5745 5746 5748 5749 5750 5752 5753
5729 5730 5729 5730 5729 5728 5728 5728 5727 5727 5727 5727 5727 5727 5726 5726 5726 5726 5726 5726 5726 5725 5725 5725 5725 5725 5726 5726 5726 5726 5727 5729 5730 5732 5733 5735 5737 5738 5739 5741 5742 5743 5744
5719 5720 5720 5720 5720 5719 5719 5718 5718 5717 5717 5717 5717 5717 5717 5716 5716 5716 5716 5716 5715 5715 5715 5715 5715 5716 5716 5716 5716 5717 5718 5719 5721 5722 5724 5726 5728 5729 5730 5732 5733 5734 5735